Weather in Dementyevka

Russia / Oryol Oblast     52°58′39″N   37°31′33″E
temp.,
°C
wind,
m/s
gust,
m/s
humid.,
%
clouds,
%
prec.,
mm/h
press.,
hPa
HPBL,
m
19 april, mon
mon1900:00+6ese238312 0.1 101833
03:00+5ene3483100 0.1 101860
06:00+5ne3791100 0.0 1018145
09:00+8e467652 0.0 1018566
12:00+10ene5566100 1.4 1017937
15:00+8ne7989100 3.7 1017585
18:00+6ene6889100 0.4 1018673
21:00+6ne5893100 0.4 1018403
20 april, tue
tue2000:00+6e4997100 0.7 1016414
03:00+6e61194100 4.8 1016527
06:00+6e61192100 0.3 1015702
09:00+7e61089100 0.3 1016704
12:00+9e7878100 0.1 10141062
15:00+5ene71193100 0.5 1012599
18:00+5ene81493100 0.4 1008682
21:00+4ne91695100 10.4 1004991
21 april, wed
wed2100:00+5e101897100 2.8 997646
03:00+6sse81495100 7.7 996665
06:00+1sw81296100 0.2 999656
09:00+2wsw81496100 0.3 1003650
12:00+3wsw81390100 0.1 1007907
15:00+7wsw71277100 0.1 10101227
18:00+7sw61080100 0.1 1011911
21:00+5ssw38948 0.2 1014196
22 april, thu
thu2200:00+3ssw37925 0.0 1015132
03:00+3ssw389296 0.0 1016153
06:00+3s389199 0.0 1017199
09:00+6ssw5108598 0.1 1017445
12:00+9ssw6883100 0.9 1018851
15:00+12sw466522 1.9 10171143
18:00+12ssw4772100 0.9 1018406
21:00+9s48855 1.1 1019128
23 april, fri
fri2300:00+7s48905 0.0 1019139
03:00+6s410915 0.0 1019197
06:00+6s411935 0.0 1019208
09:00+11s611746 0.0 1018540
12:00+15s8115895 1.1 10171593
15:00+16ssw710535 2.2 10161973
18:00+14s71160100 1.2 1015658
21:00+11s51377100 1.4 1015399